| time (UTC) | temp F | wind direction | speed MPH | gust MPH | rain 1hr in | rain 24hr in | rain mn in | humidity % | barometer mb |
| 20260505021527 | 63 | 192 | 2.0 | 5.0 | 0.00 | 0.00 | 0.00 | 48 | 1000.0 |
| 20260505020052 | 64 | 208 | 2.0 | 7.0 | 0.00 | 0.00 | 0.00 | 47 | 1000.2 |
| 20260505014605 | 63 | 196 | 3.0 | 7.0 | 0.00 | 0.00 | 0.00 | 47 | 1000.3 |
| 20260505013050 | 63 | 232 | 4.0 | 7.0 | 0.00 | 0.00 | 0.00 | 48 | 1000.4 |
| 20260505011549 | 64 | 196 | 1.0 | 4.0 | 0.00 | 0.00 | 0.00 | 47 | 1000.2 |
| 20260505010048 | 65 | 211 | 3.0 | 9.0 | 0.00 | 0.00 | 0.00 | 46 | 1000.2 |
| 20260505004548 | 65 | 224 | 2.0 | 8.0 | 0.00 | 0.00 | 0.00 | 44 | 1000.2 |
| 20260505003044 | 66 | 217 | 4.0 | 7.0 | 0.00 | 0.00 | 0.00 | 43 | 1000.2 |
| 20260505001556 | 68 | 230 | 4.0 | 10.0 | 0.00 | 0.00 | 0.00 | 40 | 1000.2 |
| 20260505000058 | 69 | 240 | 4.0 | 12.0 | 0.00 | 0.00 | 0.00 | 37 | 1000.3 |
| 20260504234602 | 70 | 244 | 6.0 | 14.0 | 0.00 | 0.01 | 0.00 | 36 | 1000.3 |
| 20260504233042 | 71 | 269 | 6.0 | 13.0 | 0.00 | 0.01 | 0.00 | 35 | 1000.2 |
| 20260504231540 | 71 | 244 | 7.0 | 11.0 | 0.00 | 0.01 | 0.00 | 34 | 1000.1 |
| 20260504230039 | 72 | 296 | 6.0 | 14.0 | 0.00 | 0.01 | 0.00 | 33 | 1000.2 |
| 20260504224541 | 72 | 263 | 7.0 | 14.0 | 0.00 | 0.01 | 0.00 | 33 | 1000.2 |
| 20260504223041 | 73 | 242 | 5.0 | 16.0 | 0.00 | 0.01 | 0.00 | 33 | 1000.1 |
| 20260504221537 | 73 | 250 | 11.0 | 20.0 | 0.00 | 0.01 | 0.00 | 31 | 1000.1 |
| 20260504220032 | 74 | 225 | 11.0 | 21.0 | 0.00 | 0.01 | 0.00 | 29 | 1000.0 |
| 20260504214529 | 74 | 260 | 12.0 | 21.0 | 0.00 | 0.01 | 0.00 | 29 | 1000.2 |
| 20260504213044 | 74 | 259 | 9.0 | 28.0 | 0.00 | 0.01 | 0.00 | 30 | 1000.2 |
| 20260504211524 | 74 | 284 | 10.0 | 22.0 | 0.00 | 0.01 | 0.00 | 32 | 1000.2 |
| 20260504210026 | 74 | 207 | 12.0 | 22.0 | 0.00 | 0.01 | 0.00 | 32 | 1000.4 |
| 20260504204523 | 74 | 213 | 11.0 | 28.0 | 0.00 | 0.01 | 0.00 | 33 | 1000.4 |
| 20260504203016 | 74 | 207 | 14.0 | 26.0 | 0.00 | 0.01 | 0.00 | 33 | 1000.6 |
| 20260504201522 | 74 | 241 | 13.0 | 32.0 | 0.00 | 0.01 | 0.00 | 34 | 1000.8 |
| 20260504200016 | 73 | 244 | 14.0 | 24.0 | 0.00 | 0.01 | 0.00 | 35 | 1000.8 |
| 20260504194511 | 73 | 261 | 15.0 | 23.0 | 0.00 | 0.01 | 0.00 | 35 | 1001.1 |
| 20260504193049 | 73 | 240 | 13.0 | 25.0 | 0.00 | 0.01 | 0.00 | 34 | 1001.3 |
| 20260504191536 | 73 | 237 | 12.0 | 24.0 | 0.00 | 0.01 | 0.00 | 38 | 1001.5 |
| 20260504190031 | 72 | 235 | 10.0 | 23.0 | 0.00 | 0.01 | 0.00 | 39 | 1001.8 |
| 20260504184529 | 71 | 267 | 12.0 | 21.0 | 0.00 | 0.01 | 0.00 | 41 | 1001.9 |
| 20260504183026 | 71 | 233 | 12.0 | 22.0 | 0.00 | 0.01 | 0.00 | 40 | 1002.1 |
| 20260504181523 | 70 | 219 | 16.0 | 24.0 | 0.00 | 0.01 | 0.00 | 42 | 1002.4 |
| 20260504180051 | 69 | 230 | 15.0 | 26.0 | 0.00 | 0.01 | 0.00 | 43 | 1002.6 |
| 20260504174550 | 69 | 238 | 9.0 | 22.0 | 0.00 | 0.01 | 0.00 | 45 | 1002.5 |
| 20260504173025 | 69 | 201 | 12.0 | 22.0 | 0.00 | 0.01 | 0.00 | 45 | 1002.7 |
| 20260504171519 | 68 | 237 | 11.0 | 22.0 | 0.00 | 0.01 | 0.00 | 45 | 1002.7 |
| 20260504081512 | 51 | 221 | 8.0 | 16.0 | 0.00 | 0.01 | 0.00 | 58 | 1005.0 |
| 20260504050007 | 53 | 240 | 10.0 | 17.0 | 0.00 | 0.01 | 0.00 | 54 | 1006.4 |
| 20260504044504 | 53 | 282 | 9.0 | 20.0 | 0.00 | 0.01 | 0.00 | 53 | 1006.5 |
| 20260504043101 | 54 | 261 | 10.0 | 18.0 | 0.00 | 0.01 | 0.00 | 53 | 1006.5 |
| 20260504041555 | 54 | 252 | 8.0 | 16.0 | 0.00 | 0.01 | 0.00 | 53 | 1006.5 |
| 20260504040052 | 54 | 227 | 8.0 | 19.0 | 0.00 | 0.01 | 0.00 | 53 | 1006.4 |
| 20260504034557 | 54 | 242 | 10.0 | 17.0 | 0.00 | 0.01 | 0.01 | 53 | 1006.3 |
| 20260504033056 | 53 | 222 | 7.0 | 15.0 | 0.00 | 0.01 | 0.01 | 53 | 1006.4 |
| 20260504031550 | 54 | 251 | 11.0 | 18.0 | 0.00 | 0.01 | 0.01 | 53 | 1006.4 |
| 20260504030048 | 53 | 235 | 8.0 | 15.0 | 0.00 | 0.01 | 0.01 | 55 | 1006.5 |
| 20260504024547 | 53 | 219 | 10.0 | 17.0 | 0.00 | 0.01 | 0.01 | 55 | 1006.5 |
| 20260504023044 | 54 | 215 | 8.0 | 23.0 | 0.00 | 0.01 | 0.01 | 54 | 1006.6 |